Location: Unnamed
(41.1546°N, 8.5392°W)
Time: 12:09:32
(UTC+01:00)

ISS - Visible Passes

Search period start: 20 May 2022 00:00
Search period end: 30 May 2022 00:00
Orbit: 414 x 421 km, 51.6° (Epoch: 20 May)

Date Brightness Start Highest point End Pass type
(mag) Time Alt. Az. Time Alt. Az. Time Alt. Az.
20 May -0.6 01:33:27 10° NW 01:33:52 13° NW 01:33:52 13° NW visible
20 May -1.1 21:30:20 10° WNW 21:33:01 21° NNW 21:35:40 10° NNE visible
20 May -0.7 23:08:55 10° NNW 23:10:43 14° N 23:12:32 10° NNE visible
21 May -1.1 00:45:38 10° NW 00:47:24 20° N 00:47:24 20° N visible
21 May -0.8 22:20:37 10° NW 22:22:29 14° N 22:24:21 10° NNE visible
21 May -1.3 23:57:47 10° NNW 00:00:14 19° NNE 00:00:55 18° NNE visible
22 May -0.8 21:32:09 10° NW 21:34:14 15° N 21:36:19 10° NNE visible
22 May -0.9 23:09:53 10° NNW 23:12:01 16° N 23:14:10 10° NE visible
23 May -1.1 00:46:12 10° NW 00:47:22 19° NW 00:47:22 19° NW visible
23 May -0.9 22:21:51 10° NNW 22:23:45 14° N 22:25:40 10° NE visible
23 May -1.9 23:58:17 10° NW 00:00:54 30° N 00:00:54 30° N visible
24 May -0.9 21:33:39 10° NNW 21:35:27 14° N 21:37:16 10° NNE visible
24 May -1.7 23:10:23 10° NW 23:13:09 23° NNE 23:14:27 18° NE visible
25 May -0.8 00:46:51 10° WNW 00:47:21 14° WNW 00:47:21 14° WNW visible
25 May -1.3 22:22:27 10° NNW 22:24:54 18° NNE 22:27:20 10° ENE visible
25 May -2.2 23:58:46 10° NW 00:00:53 35° NW 00:00:53 35° NW visible
26 May -1.1 21:34:27 10° NNW 21:36:35 16° N 21:38:43 10° NE visible
26 May -3.0 23:10:46 10° NW 23:14:00 44° NNE 23:14:27 41° NE visible
27 May -2.2 22:22:47 10° NW 22:25:49 30° NNE 22:28:01 15° E visible
27 May -1.6 23:59:29 10° WNW 00:00:56 22° W 00:00:56 22° W visible
28 May -1.7 21:34:48 10° NW 21:37:33 22° NNE 21:40:16 10° ENE visible
28 May -3.8 23:11:15 10° WNW 23:14:31 69° SW 23:14:31 69° SW visible
29 May -3.6 22:23:06 10° NW 22:26:27 69° NE 22:28:08 26° ESE visible
